Location: Dompnac
(44.5644°N, 4.1026°E)
Time: 18:52:14
(UTC+00:00)

CENTAUR R/B - Visible Passes

Search period start: 15 January 2021 00:00
Search period end: 25 January 2021 00:00
Orbit: 750 x 1438 km, 63.4° (Epoch: 11 January)

Date Brightness Start Highest point End Pass type
(mag) Time Alt. Az. Time Alt. Az. Time Alt. Az.
15 Jan 4.0 16:55:43 10° NW 17:03:47 61° WSW 17:12:28 10° SSE visible
15 Jan 6.1 18:49:24 10° WNW 18:53:18 14° WSW 18:57:17 10° SW visible
16 Jan 5.6 17:59:16 10° WNW 18:05:32 24° WSW 18:12:05 10° SSW visible
17 Jan 5.6 06:03:27 10° SE 06:06:43 15° ESE 06:10:13 10° ENE visible
17 Jan 5.0 17:10:11 10° NW 17:17:37 37° WSW 17:25:27 10° S visible
18 Jan 6.5 18:16:02 10° W 18:18:54 12° W 18:21:48 10° WSW visible
19 Jan 4.5 06:14:58 10° S 06:20:00 32° ESE 06:25:45 10° NE visible
19 Jan 6.0 17:25:18 10° WNW 17:31:11 21° WSW 17:37:17 10° SSW visible
20 Jan 5.3 05:28:32 10° SE 05:32:17 18° ESE 05:36:24 10° ENE visible
21 Jan 3.1 06:27:54 10° SSW 06:33:35 61° ESE 06:40:21 10° NE visible
21 Jan 6.5 17:43:46 10° W 17:44:29 10° W 17:45:11 10° WSW visible
22 Jan 4.1 05:40:26 10° S 05:45:38 36° ESE 05:51:39 10° NE visible
23 Jan 4.9 04:53:44 10° SSE 04:57:53 20° ESE 05:02:29 10° ENE visible
24 Jan 5.5 04:09:20 10° ESE 04:10:19 10° E 04:11:19 10° E visible
24 Jan 2.8 05:53:32 10° SSW 05:59:17 69° ESE 06:06:10 10° NE visible
